CW1459 Weather Reports


time (UTC)temp
F
wind
direction
speed
knots
gust
knots
rain 1hr
in
rain 24hr
in
rain mn
in
humidity
%
barometer
mb
20260503223328 61 302 6.1 10.4 0.00 0.00 0.00 33 1011.9
20260503222334 62 285 6.1 9.6 0.00 0.00 0.00 31 1012.0
20260503221336 62 317 3.5 13.0 0.00 0.00 0.00 35 1012.0
20260503220329 62 340 7.8 10.4 0.00 0.00 0.00 32 1012.2
20260503215331 63 298 3.5 12.2 0.00 0.00 0.00 33 1012.2
20260503214336 63 301 3.5 7.8 0.00 0.00 0.00 32 1012.1
20260503213328 62 265 7.8 13.9 0.00 0.00 0.00 32 1012.2
20260503212329 62 316 7.0 12.2 0.00 0.00 0.00 31 1012.3
20260503211320 62 313 7.8 13.0 0.00 0.00 0.00 33 1012.2
20260503210352 62 309 5.2 11.3 0.00 0.00 0.00 34 1012.2
20260503205337 62 229 3.5 12.2 0.00 0.00 0.00 33 1012.2
20260503204314 63 336 8.7 12.2 0.00 0.00 0.00 32 1012.2
20260503203329 62 341 5.2 12.2 0.00 0.00 0.00 37 1012.2
20260503202314 63 321 9.6 16.5 0.00 0.00 0.00 36 1012.4
20260503201328 62 323 8.7 14.8 0.00 0.00 0.00 34 1012.3
20260503200348 62 313 6.1 13.0 0.00 0.00 0.00 32 1012.5
20260503195332 61 337 8.7 13.0 0.00 0.00 0.00 32 1012.8
20260503194311 62 360 5.2 13.9 0.00 0.00 0.00 33 1012.8
20260503193352 61 304 6.1 13.9 0.00 0.00 0.00 31 1013.0
20260503192315 59 239 7.0 11.3 0.00 0.00 0.00 35 1013.1
20260503191311 61 321 7.0 15.6 0.00 0.00 0.00 32 1013.3
20260503190311 62 294 9.6 16.5 0.00 0.00 0.00 33 1013.4
20260503185334 62 308 5.2 11.3 0.00 0.00 0.00 36 1013.2
20260503184328 61 286 5.2 10.4 0.00 0.00 0.00 34 1013.4
20260503183330 60 300 6.1 15.6 0.00 0.00 0.00 32 1013.7
20260503182316 60 320 5.2 11.3 0.00 0.00 0.00 37 1013.6
20260503181352 59 275 6.1 12.2 0.00 0.00 0.00 34 1013.8
20260503180315 59 285 7.8 13.0 0.00 0.00 0.00 34 1013.8
20260503175313 59 284 7.0 12.2 0.00 0.00 0.00 34 1013.9
20260503174334 59 317 6.1 16.5 0.00 0.00 0.00 39 1014.1
20260503173320 59 332 6.1 15.6 0.00 0.00 0.00 41 1014.2
20260503172326 57 329 9.6 15.6 0.00 0.00 0.00 40 1014.3
20260503171359 57 293 2.6 12.2 0.00 0.00 0.00 41 1014.3
20260503170312 58 316 5.2 10.4 0.00 0.00 0.00 41 1014.2
20260503150332 51 328 6.1 13.9 0.00 0.00 0.00 51 1015.6
20260503131313 47 19 5.2 13.0 0.00 0.00 0.00 60 1015.6
20260503130313 46 311 3.5 7.8 0.00 0.00 0.00 62 1015.9
20260503110358 36 292 0.0 1.7 0.00 0.00 0.00 79 1015.1
20260503090342 37 304 0.0 4.3 0.00 0.00 0.00 76 1013.7
20260503081321 39 290 2.6 5.2 0.00 0.00 0.00 76 1013.5
20260503080341 39 302 0.9 3.5 0.00 0.00 0.00 76 1013.4
20260503072315 40 317 0.0 1.7 0.00 0.00 0.00 75 1012.9
20260503071334 41 318 0.0 2.6 0.00 0.00 0.00 73 1012.9
20260503070400 41 347 1.7 3.5 0.00 0.00 0.00 72 1012.9
20260503054341 43 329 3.5 7.0 0.00 0.00 0.00 70 1012.7
20260503053318 43 333 3.5 7.8 0.00 0.00 0.00 70 1012.7
20260503052337 42 320 5.2 10.4 0.00 0.00 0.00 71 1012.7
20260503051340 42 317 3.5 7.0 0.00 0.00 0.00 71 1012.7
20260503050320 42 328 5.2 7.8 0.00 0.00 0.00 70 1012.7
20260503045325 42 351 4.3 7.8 0.00 0.00 0.00 70 1012.7
20260503044317 42 327 3.5 5.2 0.00 0.00 0.00 69 1012.9
20260503043315 42 316 3.5 8.7 0.00 0.00 0.00 68 1012.9
20260503042321 43 5 2.6 5.2 0.00 0.00 0.00 67 1012.7
20260503041323 43 360 2.6 7.0 0.00 0.00 0.00 66 1012.8
20260503040330 43 340 5.2 9.6 0.00 0.00 0.00 67 1012.9
20260503035334 44 325 5.2 8.7 0.00 0.01 0.00 66 1013.0
20260503034339 44 347 4.3 8.7 0.00 0.01 0.00 66 1013.0
20260503033341 44 332 2.6 7.8 0.00 0.01 0.00 66 1012.9
20260503032322 45 351 2.6 7.8 0.00 0.01 0.00 65 1012.9
20260503031340 45 12 4.3 8.7 0.00 0.01 0.00 64 1013.0
20260503030316 45 318 4.3 8.7 0.00 0.01 0.00 64 1013.1
20260503025315 46 351 5.2 8.7 0.00 0.01 0.00 64 1013.1
20260503024336 46 333 4.3 7.8 0.00 0.01 0.00 64 1013.2
20260503023320 46 333 7.0 10.4 0.00 0.01 0.00 63 1013.2
20260503022320 47 342 7.0 10.4 0.00 0.01 0.00 62 1013.3
20260503021319 47 311 4.3 11.3 0.00 0.01 0.00 61 1013.1
20260503020314 48 360 5.2 11.3 0.00 0.01 0.00 60 1013.1
20260503015340 48 350 5.2 11.3 0.00 0.01 0.00 59 1013.1
20260503014339 48 336 6.1 9.6 0.00 0.01 0.00 59 1013.1
20260503013340 48 351 3.5 10.4 0.00 0.01 0.00 59 1012.9
20260503012359 49 351 3.5 7.0 0.00 0.01 0.00 61 1012.8
20260503011334 49 329 3.5 8.7 0.00 0.01 0.00 61 1012.7
20260503010331 49 350 1.7 4.3 0.00 0.01 0.00 60 1012.5
20260503005324 49 318 3.5 7.8 0.00 0.01 0.00 58 1012.4
20260503004336 50 351 3.5 7.8 0.00 0.01 0.00 57 1012.2
20260503003321 50 5 4.3 9.6 0.00 0.01 0.00 56 1012.0
20260503002323 51 338 5.2 10.4 0.00 0.01 0.00 54 1011.9
20260503001337 51 303 7.0 13.0 0.00 0.01 0.00 52 1011.7
20260503000336 51 351 6.1 9.6 0.00 0.01 0.00 51 1011.6
20260502235333 51 340 3.5 8.7 0.00 0.01 0.00 50 1011.4
20260502234337 52 329 6.1 11.3 0.00 0.01 0.00 50 1011.4
20260502233336 52 306 4.3 13.0 0.00 0.01 0.00 50 1011.3
20260502232337 52 290 3.5 8.7 0.00 0.01 0.00 49 1011.3
20260502231400 52 14 4.3 10.4 0.00 0.01 0.00 48 1011.2
20260502230314 53 351 3.5 7.0 0.00 0.01 0.00 50 1011.1
20260502225314 53 323 3.5 7.8 0.00 0.01 0.00 49 1011.0
20260502224338 53 343 3.5 7.8 0.00 0.01 0.00 48 1011.0